Location: Newark
(13.6797°N, 8.5297°E)
Time: 15:09:47
(UTC+00:00)

Courier 1B Rocket - Pass Details

Date: 27 January 2020
Orbit: 920 x 1202 km, 28.2° (Epoch: 25 February)

Event Time Altitude Azimuth Distance (km) Brightness Sun altitude
Rises 08:43:06 0° 254° (WSW) 4,085 7.9 36.1°
Reaches altitude 10° 08:46:02 10° 258° (WSW) 3,107 7.4 36.7°
Maximum altitude 08:53:39 59° 337° (NNW) 1,306 5.9 38.1°
Drops below altitude 10° 09:00:51 10° 55° (NE) 2,948 7.8 39.5°
Sets 09:03:35 0° 60° (ENE) 3,863 8.3 40.0°
